Regional Weather Roundup
Issued by NWS Little Rock, AR

Home | Current Version | Previous Version | Text Only | Print | Product List | Glossary On
Versions: 1 2 3 4 5 6 7 8 9 10 11 12 13 14 15 16 17 18 19 20 21 22 23 24 25 26 27 28 29 30 31 32 33 34 35 36 37 38 39 40 41 42 43 44 45 46 47 48 49
000
ASUS44 KLZK 220205
RWRLZK

WEATHER ROUNDUP FOR ARKANSAS
NATIONAL WEATHER SERVICE LITTLE ROCK AR
900 PM CDT SUN SEP 21 2014

NOTE: "FAIR" INDICATES FEW OR NO CLOUDS BELOW 12,000 FEET WITH NO
SIGNIFICANT WEATHER AND/OR OBSTRUCTIONS TO VISIBILITY.

ARZ001-003-010-029-220300-
NORTHWEST ARKANSAS

CITY           SKY/WX    TMP DP  RH WIND       PRES   REMARKS
FAYETTEVILLE   CLEAR     59  55  87 CALM      30.17R
FORT SMITH     CLEAR     74  52  46 N6        30.11R
HARRISON       CLEAR     63  48  58 N3        30.16R
BENTONVILLE    CLEAR     64  52  63 N3        30.18R
ROGERS         CLEAR     65  50  58 N3        30.19R
SILOAM SPGS    CLEAR     64  48  55 N5        30.18R
HIGHFILL       CLEAR     62  51  67 N7        30.17R
SPRINGDALE     PTCLDY    66  52  59 N6        30.18R
$$

ARZ004-005-016-220300-
NORTH CENTRAL ARKANSAS

CITY           SKY/WX    TMP DP  RH WIND       PRES   REMARKS
BATESVILLE     CLEAR     70  46  43 NW5       30.09R
FLIPPIN        CLEAR     70  46  43 N3        30.13R
MTN HOME       CLEAR     66  49  54 N5        30.13R
$$

ARZ040-041-220300-
WEST CENTRAL ARKANSAS

CITY           SKY/WX    TMP DP  RH WIND       PRES   REMARKS
MENA           PTCLDY    77  72  83 CALM      30.11R
MOUNT IDA      CLEAR     72  70  93 CALM      30.07R FOG
$$

ARZ009-017-025-026-028-220300-
NORTHEAST ARKANSAS

CITY           SKY/WX    TMP DP  RH WIND       PRES   REMARKS
CORNING          N/A     66  52  59 N7        30.08R
JONESBORO      CLEAR     70  52  52 N6        30.06R
NEWPORT        CLEAR     65  54  67 NW12      30.08R
WALNUT RIDGE   CLEAR     63  36  36 N9        30.07R
BLYTHEVILLE    CLEAR     62  57  83 NE6       30.06R
$$

ARZ022-023-033-042-044-220300-
CENTRAL ARKANSAS

CITY           SKY/WX    TMP DP  RH WIND       PRES   REMARKS
LITTLE ROCK    PTCLDY    77  68  73 N9        30.05R
N LITTLE ROCK  PTCLDY    75  70  85 N7        30.05R
JACKSONVILLE   CLEAR     76  65  70 N7        30.06R
SEARCY         CLEAR     75  54  48 N8        30.07R
HOT SPRINGS    CLEAR     75  69  81 CALM      30.07R
RUSSELLVILLE   CLEAR     70  61  73 N3        30.09R
CLINTON        FAIR      63  61  94 CALM      30.11R
$$

ARZ036-220300-
EAST ARKANSAS

CITY           SKY/WX    TMP DP  RH WIND       PRES   REMARKS
WEST MEMPHIS   MOCLDY    74  55  51 N7        30.03R
$$

ARZ050-053-066-070-073-220300-
SOUTHWEST ARKANSAS

CITY           SKY/WX    TMP DP  RH WIND       PRES   REMARKS
ARKADELPHIA    FAIR      78  73  84 N3        30.06R
CAMDEN         CLEAR     75  72  88 N5        30.03R
TEXARKANA      CLEAR     79  71  76 N5        30.05R
EL DORADO      MOCLDY    74  71  91 CALM      30.04R
DE QUEEN       CLEAR     77  70  79 CALM      30.05R
$$

ARZ056-057-069-220300-
SOUTHEAST ARKANSAS

CITY           SKY/WX    TMP DP  RH WIND       PRES   REMARKS
PINE BLUFF     MOCLDY    78  70  76 NW7       30.04R
STUTTGART      PTCLDY    73  68  83 N9        30.05R
MONTICELLO     MOCLDY    79  70  74 CALM      30.03R

$$




USA.gov is the U.S. government's official web portal to all federal, state and local government web resources and services.